Date,TemperatureHighF,TemperatureAvgF,TemperatureLowF,DewpointHighF,DewpointAvgF,DewpointLowF,HumidityHigh,HumidityAvg,HumidityLow,PressureMaxIn,PressureMinIn,WindSpeedMaxMPH,WindSpeedAvgMPH,GustSpeedMaxMPH,PrecipitationSumIn
2013-9-1,86.8,67.9,55.0,62.0,57.6,53.0,94,73,40,29.92,29.81,5,1,8,0.00
2013-9-2,86.4,68.9,54.0,65.0,59.3,52.0,96,75,46,29.92,29.82,5,1,11,0.00
2013-9-3,85.9,67.5,53.5,61.0,56.2,52.0,97,72,37,29.95,29.85,4,0,9,0.00
2013-9-4,88.2,68.2,50.5,61.0,55.7,49.0,97,69,39,29.99,29.86,7,1,9,0.00
2013-9-5,89.3,69.8,51.7,56.0,52.5,48.0,96,60,24,29.96,29.88,7,1,12,0.00
2013-9-6,96.0,71.7,51.2,58.0,52.4,49.0,94,57,21,29.95,29.79,5,1,8,0.00
2013-9-7,98.6,72.5,51.0,56.0,50.0,42.0,91,55,15,29.84,29.75,4,0,10,0.00
2013-9-8,98.0,69.2,50.8,61.0,53.8,49.0,96,65,23,29.85,29.71,3,0,6,0.00
2013-9-9,100.2,67.6,50.4,63.0,54.5,48.0,94,69,28,29.79,29.64,5,0,10,0.00
2013-9-10,74.0,63.3,56.0,61.0,58.0,53.0,94,83,64,29.88,29.70,8,1,8,0.00
2013-9-11,72.6,64.6,61.7,62.0,60.2,59.0,95,86,69,29.97,29.87,4,0,7,0.00
2013-9-12,85.9,67.7,57.6,66.0,59.9,55.0,93,78,49,29.95,29.82,3,0,6,0.00
2013-9-13,87.7,65.9,55.5,62.0,56.9,52.0,96,76,38,29.87,29.70,5,0,6,0.00
2013-9-14,86.5,63.8,52.1,63.0,55.6,50.0,96,78,43,29.79,29.66,3,0,7,0.00
2013-9-15,83.7,64.3,49.2,60.0,55.6,47.0,96,77,44,29.83,29.74,5,1,8,0.00
2013-9-16,90.0,67.6,53.4,62.0,56.7,52.0,97,73,35,29.87,29.70,5,1,8,0.00
2013-9-17,81.5,65.8,50.1,56.0,51.9,49.0,96,65,39,29.85,29.77,10,2,17,0.00
2013-9-18,88.0,70.1,56.7,52.0,48.5,41.0,71,50,21,29.88,29.75,8,1,10,0.00
2013-9-19,92.6,65.4,45.9,52.0,46.1,24.0,94,60,9,29.83,29.70,5,1,9,0.00
2013-9-20,80.2,60.2,44.1,62.0,53.5,42.0,96,81,51,29.80,29.74,12,1,18,0.06
2013-9-21,72.0,62.5,52.9,62.0,57.2,51.0,98,84,51,29.86,29.75,9,1,14,0.28
2013-9-22,80.2,61.7,47.9,57.0,50.5,47.0,98,72,33,29.97,29.86,10,1,10,0.00
2013-9-23,86.3,66.1,49.7,63.0,55.7,48.0,97,72,41,29.99,29.86,5,1,10,0.00
2013-9-24,80.3,65.5,54.5,55.0,51.7,48.0,94,65,33,29.94,29.85,11,2,16,0.00
2013-9-25,75.4,60.8,47.1,50.0,45.6,41.0,95,61,32,29.92,29.79,12,2,17,0.00
2013-9-26,81.0,62.5,50.4,45.0,41.7,35.0,70,50,20,29.97,29.82,6,1,8,0.00
2013-9-27,82.4,61.8,44.0,46.0,41.9,32.0,93,56,17,30.07,29.96,9,1,12,0.00
2013-9-28,84.1,61.4,43.6,55.0,45.0,34.0,90,63,17,30.06,29.95,5,1,8,0.00
2013-9-29,72.0,61.6,53.1,64.0,58.4,51.0,96,89,73,30.06,30.01,4,0,9,0.01
2013-9-30,76.5,65.0,52.8,66.0,60.9,47.0,97,87,65,30.02,29.93,3,0,7,0.01